• Join FlightAware (Why Join?)
  • Login
  • US Flag GB Flag 
22:05 EST


 

Airport Tracker/Info


-or-


 

Live Flight TrackerFlight Track Log ✈ SWA2147 ✈ 26-Apr-2013 ✈ KPHX - KMDW

Flight Track Log - Related Links

Times and Time Zones

All times are in EDT time to prevent confusion due to time zone crossing. See the SWA2147 flight status page for this flight to view local times or setup timezone preferences in your user account.

Time Position Orientation Groundspeed Altitude Reporting Facility
EDT Latitude Longitude Course Direction KTS MPH feet Rate Location/Type
18:03 33.4333 -112.0333 268° West 191 220 2,100  Level Phoenix TRACON
18:03 33.4322 -112.0653 268° West 178 205 3,100 1,860 Climbing Albuquerque Center
18:04 33.4339 -112.1375 272° West 216 249 5,100 2,280 Climbing Albuquerque Center
18:05 33.4692 -112.2028 303° West 266 306 7,900 2,760 Climbing Albuquerque Center
18:06 33.5228 -112.1456 42° Northeast 276 318 10,900 2,520 Climbing Albuquerque Center
18:07 33.5403 -112.0508 77° East 293 337 13,200 2,280 Climbing Albuquerque Center
18:08 33.5656 -111.9228 77° East 334 384 15,600 2,040 Climbing Albuquerque Center
18:09 33.5875 -111.8039 77° East 365 420 17,400 1,560 Climbing Albuquerque Center
18:10 33.6125 -111.6750 77° East 397 457 18,900 1,920 Climbing Albuquerque Center
18:11 33.6378 -111.5386 77° East 420 483 21,400 2,220 Climbing Albuquerque Center
18:12 33.6631 -111.4033 77° East 421 484 23,500 1,740 Climbing Albuquerque Center
18:13 33.6981 -111.2353 76° East 437 503 25,100 1,440 Climbing Albuquerque Center
18:14 33.7500 -111.0975 66° East 454 522 26,500 1,260 Climbing Albuquerque Center
18:16 33.7989 -110.9542 68° East 463 533 27,800 1,080 Climbing Albuquerque Center
18:17 33.8511 -110.8081 67° East 473 544 28,800 900 Climbing Albuquerque Center
18:18 33.9042 -110.6572 67° East 484 557 29,700 840 Climbing Albuquerque Center
18:19 33.9592 -110.5017 67° East 500 575 30,600 1,320 Climbing Albuquerque Center
18:20 34.0269 -110.3081 67° East 511 588 32,500 1,500 Climbing Albuquerque Center
18:21 34.0806 -110.1522 67° East 509 586 33,700 1,020 Climbing Albuquerque Center
18:22 34.1394 -109.9833 67° East 504 580 34,600 840 Climbing Albuquerque Center
18:23 34.1906 -109.8331 68° East 507 583 35,500 900 Climbing Albuquerque Center
18:24 34.2503 -109.6567 68° East 508 585 36,500 720 Climbing Albuquerque Center
18:25 34.3011 -109.5067 68° East 506 582 37,000 240 Climbing Albuquerque Center
18:26 34.3514 -109.3578 68° East 505 581 37,000  Level Albuquerque Center
18:27 34.4103 -109.1833 68° East 503 579 37,000  Level Albuquerque Center
18:28 34.4564 -109.0319 70° East 503 579 37,000  Level Albuquerque Center
18:30 34.5467 -108.7014 72° East 499 574 37,000  Level Albuquerque Center
18:31 34.5961 -108.5228 71° East 502 578 37,000  Level Albuquerque Center
18:32 34.6367 -108.3700 72° East 506 582 37,000  Level Albuquerque Center
18:33 34.6803 -108.2064 72° East 508 585 37,000  Level Albuquerque Center
18:34 34.7250 -108.0439 71° East 509 586 37,000  Level Albuquerque Center
18:35 34.7681 -107.8786 72° East 512 589 37,000  Level Albuquerque Center
18:36 34.8208 -107.6822 72° East 511 588 37,000  Level Albuquerque Center
18:37 34.8639 -107.5164 72° East 513 590 37,000  Level Albuquerque Center
18:38 34.9058 -107.3536 73° East 509 586 37,000  Level Albuquerque Center
18:39 34.9528 -107.1708 73° East 509 586 37,000  Level Albuquerque Center
18:40 34.9956 -107.0097 72° East 504 580 37,000  Level Albuquerque Center
18:41 35.0339 -106.8564 73° East 497 572 37,000  Level Albuquerque Center
18:42 35.0928 -106.6878 67° East 487 560 37,000  Level Albuquerque Center
18:43 35.1469 -106.5406 66° East 492 566 37,000  Level Albuquerque Center
18:44 35.2031 -106.3894 66° East 500 575 37,000  Level Albuquerque Center
18:45 35.2589 -106.2378 66° East 493 567 37,000  Level Albuquerque Center
18:46 35.3172 -106.0750 66° East 489 563 37,000  Level Albuquerque Center
18:47 35.3819 -105.8986 66° East 504 580 37,000  Level Albuquerque Center
18:48 35.4447 -105.7336 65° Northeast 505 581 37,000  Level Albuquerque Center
18:50 35.5019 -105.5750 66° East 504 580 37,000  Level Albuquerque Center
18:51 35.5550 -105.4178 67° East 496 571 37,000  Level Albuquerque Center
18:52 35.6122 -105.2558 66° East 504 580 37,000  Level Albuquerque Center
18:53 35.6761 -105.0958 64° Northeast 510 587 37,000  Level Albuquerque Center
18:54 35.7567 -104.9514 55° Northeast 508 585 37,000  Level Albuquerque Center
18:55 35.8375 -104.8031 56° Northeast 510 587 37,000  Level Albuquerque Center
18:56 35.9200 -104.6533 56° Northeast 518 596 37,000  Level Albuquerque Center
18:57 35.9989 -104.5039 57° Northeast 515 593 37,000  Level Albuquerque Center
18:58 36.0783 -104.3550 57° Northeast 512 589 37,000  Level Albuquerque Center
18:59 36.1739 -104.1794 56° Northeast 519 597 37,000  Level Albuquerque Center
19:00 36.2539 -104.0311 56° Northeast 515 593 37,000  Level Albuquerque Center
19:01 36.3333 -103.8814 57° Northeast 515 593 37,000  Level Albuquerque Center
19:02 36.3994 -103.7200 63° Northeast 517 595 37,000  Level Albuquerque Center
19:03 36.4597 -103.5578 65° Northeast 514 592 37,000  Level Albuquerque Center
19:04 36.5228 -103.3972 64° Northeast 513 590 37,000  Level Albuquerque Center
19:05 36.5858 -103.2381 64° Northeast 510 587 37,000  Level Albuquerque Center
19:06 36.6492 -103.0764 64° Northeast 508 585 37,000  Level Albuquerque Center
19:07 36.7156 -102.8989 65° Northeast 507 583 37,000  Level Albuquerque Center
19:08 36.7719 -102.7469 65° Northeast 506 582 37,000  Level Albuquerque Center
19:09 36.8289 -102.5950 65° Northeast 506 582 37,000  Level Albuquerque Center
19:10 36.8981 -102.4097 65° Northeast 510 587 37,000  Level Albuquerque Center
19:11 36.9542 -102.2567 65° Northeast 508 585 37,000  Level Albuquerque Center
19:12 37.0208 -102.0789 65° Northeast 507 583 37,000  Level Albuquerque Center
19:13 37.0764 -101.9250 66° East 507 583 37,000  Level Albuquerque Center
19:14 37.1322 -101.7711 65° Northeast 507 583 37,000  Level Albuquerque Center
19:15 37.1778 -101.6408 66° East 508 585 37,000  Level Kansas City Center
19:16 37.2336 -101.4867 66° East 508 585 37,000  Level Kansas City Center
19:17 37.2892 -101.3333 65° Northeast 507 583 37,000  Level Kansas City Center
19:18 37.3536 -101.1525 66° East 509 586 37,000  Level Kansas City Center
19:19 37.4092 -100.9972 66° East 512 589 37,000  Level Kansas City Center
19:20 37.4719 -100.8178 66° East 510 587 37,000  Level Kansas City Center
19:21 37.5333 -100.6467 66° East 510 587 37,000  Level Kansas City Center
19:22 37.5914 -100.4814 66° East 512 589 37,000  Level Kansas City Center
19:23 37.6450 -100.3267 66° East 513 590 37,000  Level Kansas City Center
19:24 37.7081 -100.1433 66° East 513 590 37,000  Level Kansas City Center
19:25 37.7644 -99.9839 66° East 518 596 37,000  Level Kansas City Center
19:26 37.8272 -99.7994 67° East 515 593 37,000  Level Kansas City Center
19:27 37.8803 -99.6408 67° East 513 590 37,000  Level Kansas City Center
19:28 37.9394 -99.4642 67° East 514 592 37,000  Level Kansas City Center
19:29 37.9947 -99.2958 67° East 517 595 37,000  Level Kansas City Center
19:30 38.0494 -99.1278 67° East 517 595 37,000  Level Kansas City Center
19:31 38.1072 -98.9589 66° East 520 598 37,000  Level Kansas City Center
19:32 38.1647 -98.7886 67° East 523 602 37,000  Level Kansas City Center
19:33 38.2219 -98.6183 67° East 521 600 37,000  Level Kansas City Center
19:34 38.2764 -98.4508 67° East 512 589 37,000  Level Kansas City Center
19:35 38.3417 -98.2489 68° East 511 588 37,000  Level Kansas City Center
19:36 38.3950 -98.0833 68° East 503 579 37,000  Level Kansas City Center
19:37 38.4481 -97.9186 68° East 500 575 37,000  Level Kansas City Center
19:38 38.5006 -97.7528 68° East 501 577 37,000  Level Kansas City Center
19:40 38.5528 -97.5883 68° East 498 573 37,000  Level Kansas City Center
19:41 38.6053 -97.4222 68° East 501 577 37,000  Level Kansas City Center
19:42 38.6572 -97.2567 68° East 500 575 37,000  Level Kansas City Center
19:43 38.7086 -97.0892 68° East 505 581 37,000  Level Kansas City Center
19:44 38.7597 -96.9236 68° East 500 575 37,000  Level Kansas City Center
19:45 38.8219 -96.7244 68° East 501 577 37,000  Level Kansas City Center
19:46 38.8725 -96.5603 68° East 496 571 37,000  Level Kansas City Center
19:47 38.9192 -96.4008 69° East 493 567 37,000  Level Kansas City Center
19:48 38.9758 -96.2167 68° East 494 568 37,000  Level Kansas City Center
19:49 39.0206 -96.0597 70° East 490 564 37,000  Level Kansas City Center
19:50 39.0672 -95.9028 69° East 490 564 37,000  Level Kansas City Center
19:51 39.1217 -95.7186 69° East 494 568 37,000  Level Kansas City Center
19:52 39.1683 -95.5625 69° East 489 563 37,000  Level Kansas City Center
19:53 39.2236 -95.3725 69° East 491 565 37,000  Level Kansas City Center
19:54 39.2708 -95.2072 70° East 492 566 37,000  Level Kansas City Center
19:55 39.3164 -95.0506 69° East 490 564 37,000  Level Kansas City Center
19:56 39.3619 -94.8922 70° East 489 563 37,000  Level Kansas City Center
19:57 39.4156 -94.7056 70° East 496 571 37,000  Level Kansas City Center
19:58 39.4608 -94.5444 70° East 496 571 37,000  Level Kansas City Center
19:59 39.5136 -94.3569 70° East 497 572 37,000  Level Kansas City Center
20:00 39.5592 -94.1942 70° East 501 577 37,000  Level Kansas City Center
20:01 39.6117 -94.0050 70° East 501 577 37,000  Level Kansas City Center
20:02 39.6561 -93.8422 70° East 500 575 37,000  Level Kansas City Center
20:03 39.7008 -93.6814 70° East 508 585 37,000  Level Kansas City Center
20:04 39.7464 -93.5100 71° East 507 583 37,000  Level Kansas City Center
20:05 39.8017 -93.3094 70° East 495 570 37,000  Level Kansas City Center
20:06 39.8469 -93.1389 71° East 500 575 37,000  Level Kansas City Center
20:07 39.8908 -92.9678 71° East 504 580 37,000 -360 Level Kansas City Center
20:08 39.9361 -92.7983 71° East 505 581 36,300 -780 Descending Kansas City Center
20:09 39.9822 -92.6256 71° East 509 586 35,400 -840 Descending Kansas City Center
20:10 40.0358 -92.4181 71° East 514 592 34,600 -900 Descending Kansas City Center
20:11 40.0797 -92.2481 71° East 508 585 33,600 -960 Descending Kansas City Center
20:12 40.1239 -92.0736 72° East 513 590 32,700 -900 Descending Kansas City Center
20:13 40.1700 -91.9006 71° East 512 589 31,800 -840 Descending Kansas City Center
20:14 40.2111 -91.7289 73° East 504 580 31,000 -420 Descending Kansas City Center
20:15 40.2628 -91.5239 72° East 499 574 31,000  Level Kansas City Center
20:16 40.3061 -91.3547 71° East 496 571 31,000  Level Kansas City Center
20:18 40.3483 -91.1839 72° East 496 571 31,000  Level Kansas City Center
20:19 40.3903 -91.0094 72° East 499 574 31,000  Level Kansas City Center
20:19 40.4075 -90.9394 72° East 501 577 31,000  Level Chicago Center
20:20 40.4506 -90.7644 72° East 503 579 31,000  Level Chicago Center
20:21 40.4922 -90.5881 73° East 505 581 31,000  Level Chicago Center
20:22 40.5339 -90.4131 73° East 505 581 31,000  Level Chicago Center
20:23 40.5775 -90.2308 72° East 511 588 31,000 -1,440 Level Chicago Center
20:24 40.6197 -90.0494 73° East 522 601 28,100 -3,000 Descending Chicago Center
20:25 40.6692 -89.8319 73° East 521 600 24,800 -2,460 Descending Chicago Center
20:26 40.7436 -89.6883 56° Northeast 491 565 23,100 -2,040 Descending Chicago Center
20:27 40.8200 -89.5586 52° Northeast 453 521 20,600 -2,460 Descending Chicago Center
20:28 40.8981 -89.4264 52° Northeast 419 482 18,100 -1,860 Descending Chicago Center
20:29 40.9661 -89.3114 52° Northeast 402 463 16,800 -1,200 Descending Chicago Center
20:30 41.0300 -89.2039 52° Northeast 378 435 15,700 -1,080 Descending Chicago Center
20:31 41.0969 -89.0928 51° Northeast 358 412 14,600 -1,200 Descending Chicago Center
20:32 41.1542 -88.9936 53° Northeast 344 396 13,300 -1,500 Descending Chicago Center
20:33 41.2114 -88.8975 52° Northeast 336 387 11,600 -1,500 Descending Chicago Center
20:34 41.2639 -88.8042 53° Northeast 320 368 10,300 -1,020 Descending Chicago Center
20:35 41.3119 -88.7231 52° Northeast 285 328 9,600 -960 Descending Chicago Center
20:36 41.3925 -88.6506 34° Northeast 295 339 8,400 -1,140 Descending Chicago Center
20:37 41.4500 -88.5736 45° Northeast 299 344 7,300 -1,080 Descending Chicago Center
20:38 41.4869 -88.4747 63° Northeast 299 344 6,200 -1,080 Descending Chicago Center
20:40 41.5228 -88.3794 63° Northeast 290 334 5,100 -600 Descending Chicago Center
20:41 41.5439 -88.2831 74° East 274 315 5,000 -60 Descending Chicago Center
20:42 41.5606 -88.1819 78° East 277 319 5,000  Level Chicago Center
20:43 41.5778 -88.0828 77° East 274 315 5,000 -60 Level Chicago Center
20:44 41.5989 -87.9622 77° East 275 316 4,900 -660 Descending Chicago Center
20:45 41.6336 -87.8692 63° Northeast 279 321 3,700 -960 Descending Chicago Center
20:45 41.6500 -87.8000 72° East 264 304 3,300 -600 Descending Chicago TRACON
20:46 41.6833 -87.7333 56° Northeast 223 257 2,800 -720 Descending Chicago TRACON
20:47 41.7333 -87.6833 37° Northeast 206 237 2,000 -480 Descending Chicago TRACON
20:48 41.7833 -87.6667 14° North 201 231 1,900 -240 Descending Chicago TRACON
20:49 41.8167 -87.7000 323° Northwest 160 184 1,600 -600 Descending Chicago TRACON
20:50 41.8000 -87.7333 236° Southwest 133 153 800 -840 Descending Chicago TRACON